Regional Weather Roundup
Issued by NWS

Home | Current Version | Previous Version | Text Only | Print | Product List | Glossary Off
Versions: 1 2 3 4 5 6 7 8 9 10 11 12 13 14 15 16 17 18 19 20 21 22 23 24 25 26 27 28 29 30 31 32 33 34 35 36 37 38 39 40 41 42 43 44 45 46 47 48 49 50

000
ASUS45 KSLC 281010
RWRUT

UTAH REGIONAL WEATHER ROUNDUP
NATIONAL WEATHER SERVICE SALT LAKE CITY UT
400 AM MDT THU APR 28 2016

UTZ001>011-023>025-281100-

NORTHERN UTAH

CITY           SKY/WX    TMP DP  RH WIND       PRES   REMARKS
BRIGHAM CITY   MOCLDY    48  39  72 S3        29.70S
HILL AFB       CLOUDY    45  38  76 E9        29.69S
LOGAN          PTCLDY    42  38  85 CALM      29.72S
OGDEN          CLOUDY    47  40  76 S7        29.68F
PROVO AIRPORT  CLOUDY    43  39  87 CALM      29.69F
SALT LAKE CITY CLOUDY    48  42  80 SE6       29.67F
VERNAL         CLOUDY    45  32  60 N9        29.72F
WENDOVER       CLOUDY    45  37  76 N13       29.69F
HEBER CITY     MIX PCPN  41  37  87 CALM      29.69S

$$

UTZ012>022-026-027-281100-

SOUTHERN/CENTRAL UTAH

CITY           SKY/WX    TMP DP  RH WIND       PRES   REMARKS
BLANDING       CLOUDY    42  40  93 CALM      29.81R
BRYCE CANYON   MOCLDY    30  28  92 CALM      29.70F
CEDAR CITY     FOG       34  33  96 SW5       29.63F VSB 1/4 WCI  30
DELTA          PTCLDY    37  37 100 N6        29.67F WCI  33
HANKSVILLE     MOCLDY    45  43  93 N5        29.70F
MILFORD        CLOUDY    39  37  92 N10       29.65F WCI  32
MOAB/CYNLANDS  NOT AVBL
PRICE          MIX PCPN  34  32  92 NE5       29.70F WCI  30
ST GEORGE      CLOUDY    50  39  66 CALM      29.62F
KANAB          CLOUDY    43  39  87 N5        29.69

$$

REGIONAL REPORTS     COLORADO/ARIZONA

CITY           SKY/WX    TMP DP  RH WIND       PRES   REMARKS
CRAIG, CO      CLOUDY    35  31  85 NE6       29.78F WCI  30
GRAND JUNCTION CLOUDY    46  39  76 E7        29.68F
RIFLE          CLOUDY    41  35  79 CALM      29.75F
MONTROSE       CLOUDY    45  38  76 CALM      29.74F
CORTEZ         LGT RAIN  48  35  60 SW8G23    29.74S
PAGE, AZ       CLOUDY    48  46  93 NW3       29.65F
GRAND CANYON   CLOUDY    42  32  67 W10G18    29.69S
KINGMAN        PTCLDY    43  40  89 SE7       29.64R
FLAGSTAFF      CLOUDY    41  23  48 S16G22    29.71F

$$

REGIONAL REPORTS    NEVADA/IDAHO/WYOMING

CITY           SKY/WX    TMP DP  RH WIND       PRES   REMARKS
LAS VEGAS, NV  CLOUDY    57  40  52 N10       29.56S
ELY            CLOUDY    36  35  96 N12       29.69F WCI  28
ELKO           LGT RAIN  41  36  82 NE7       29.76S
POCATELLO, ID  CLOUDY    37  30  75 E5        29.80S WCI  33
BURLEY         PTCLDY    38  36  92 SE3       29.77S
EVANSTON, WY   CLOUDY    33  27  78 E21G28    29.75S WCI  21
ROCK SPRINGS   CLOUDY    31  26  82 NE16      29.84S WCI  20

$$



USA.gov is the U.S. government's official web portal to all federal, state and local government web resources and services.